{"data":{"norad_id":63631,"intl_designator":"2025-081B","name":"TOMORROW-S7","alt_names":[],"object_type":"PAYLOAD","status":"ACTIVE","operator":null,"country":"US","launch_date":"2025-04-22","launch_site_code":"AFETR","launch_vehicle":null,"mission":null,"orbit_class":"UNKNOWN","rcs_meters":null,"size_class":null,"mass_kg":null,"dimensions":null,"purposes":[],"wikipedia_slug":null,"has_3d_model":false,"image_url":null,"decayed_at":null,"tle_current":{"epoch":"2026-09-21T21:44:31.797312Z","epoch_age_seconds":86225,"freshness":"FRESH","line1":"1 63631U 25081B   26264.90592358  .00000884  00000+0  88499-4 0  9997","line2":"2 63631  45.3927 193.5082 0001546  45.4964 314.6041 14.99875577 77697","mean_motion":14.99875577,"eccentricity":0.0001546,"inclination_deg":45.3927,"raan_deg":193.5082,"arg_perigee_deg":45.4964,"mean_anomaly_deg":314.6041,"bstar":8.8499e-5,"rev_number":7769,"period_min":96.007963732581,"perigee_km":566.2066648393,"apogee_km":568.35418790753,"semimajor_km":6945.4174263734,"source":"CELESTRAK","updated_at":"2026-09-22T09:00:29.239827Z"}}}